QPF
0.01 0.01 0.01 0.00 0.00 0.01 0.00 0.00 0.00 0.00 0.00 0.00 0.00 0.00 0.00 0.00 0.00 0.00 0.00 0.00 0.00 0.00 0.00 0.00 0.01 0.02 0.01 0.01 0.00 0.00 0.00 0.00 0.00 0.00 0.00 0.00 0.02 0.02 0.02 0.00 0.00 0.00 0.00 0.00 0.00 0.00 0.00
0.01 0.02 0.01 0.00 0.00 0.00 0.01 0.00 0.00 0.00 0.00 0.00 0.00 0.00 0.00 0.00 0.00 0.00 0.00 0.00 0.00 0.00 0.00 0.00 0.01 0.02 0.00 0.00 0.00 0.00 0.00 0.00 0.00 0.00 0.00 0.00 0.01 0.01 0.01 0.01 0.00 0.00 0.00 0.00 0.00 0.00 0.00
0.01 0.01 0.01 0.00 0.00 0.00 0.00 0.00 0.00 0.00 0.00 0.00 0.00 0.00 0.00 0.00 0.00 0.00 0.00 0.00 0.00 0.00 0.00 0.01 0.04 0.01 0.00 0.00 0.00 0.00 0.00 0.00 0.00 0.00 0.00 0.00 0.02 0.05 0.01 0.02 0.00 0.00 0.00 0.00 0.00 0.00 0.00
0.01 0.01 0.01 0.01 0.00 0.00 0.00 0.00 0.00 0.00 0.00 0.00 0.00 0.00 0.00 0.00 0.00 0.01 0.00 0.00 0.00 0.00 0.00 0.02 0.04 0.02 0.01 0.00 0.00 0.00 0.00 0.00 0.00 0.00 0.00 0.00 0.03 0.07 0.01 0.01 0.00 0.01 0.01 0.00 0.00 0.00 0.00
0.01 0.01 0.01 0.01 0.01 0.00 0.00 0.00 0.01 0.00 0.00 0.00 0.00 0.00 0.00 0.00 0.00 0.01 0.04 0.03 0.01 0.03 0.02 0.01 0.00 0.01 0.00 0.00 0.00 0.00 0.00 0.00 0.00 0.00 0.00 0.00 0.01 0.04 0.02 0.01 0.01 0.01 0.01 0.00 0.00 0.00 0.00
0.01 0.01 0.01 0.01 0.01 0.01 0.00 0.00 0.00 0.01 0.00 0.00 0.00 0.00 0.01 0.00 0.00 0.00 0.01 0.05 0.02 0.01 0.02 0.00 0.01 0.01 0.00 0.00 0.00 0.00 0.00 0.00 0.02 0.07 0.05 0.02 0.02 0.04 0.03 0.02 0.01 0.00 0.00 0.00 0.00 0.00 0.00
0.00 0.01 0.01 0.01 0.01 0.01 0.01 0.00 0.00 0.00 0.00 0.00 0.00 0.00 0.00 0.00 0.00 0.00 0.01 0.02 0.00 0.01 0.01 0.00 0.00 0.00 0.00 0.00 0.00 0.00 0.00 0.00 0.01 0.07 0.04 0.02 0.02 0.02 0.01 0.01 0.00 0.00 0.00 0.00 0.00 0.00 0.00
0.01 0.01 0.01 0.01 0.01 0.01 0.01 0.00 0.00 0.00 0.00 0.00 0.00 0.00 0.00 0.01 0.00 0.00 0.03 0.01 0.00 0.00 0.00 0.00 0.00 0.00 0.00 0.00 0.01 0.02 0.00 0.00 0.00 0.01 0.01 0.01 0.01 0.01 0.01 0.01 0.00 0.00 0.00 0.00 0.00 0.00 0.00
0.01 0.01 0.01 0.01 0.01 0.01 0.01 0.01 0.00 0.00 0.00 0.00 0.00 0.00 0.00 0.00 0.00 0.02 0.02 0.01 0.00 0.00 0.00 0.00 0.00 0.00 0.00 0.00 0.00 0.07 0.00 0.00 0.00 0.00 0.00 0.00 0.01 0.01 0.02 0.01 0.01 0.00 0.00 0.00 0.00 0.00 0.00
0.01 0.01 0.01 0.02 0.02 0.02 0.01 0.01 0.00 0.00 0.00 0.00 0.00 0.00 0.00 0.01 0.01 0.01 0.01 0.00 0.00 0.00 0.00 0.00 0.00 0.00 0.01 0.04 0.01 0.00 0.00 0.00 0.02 0.01 0.00 0.00 0.02 0.01 0.02 0.00 0.00 0.00 0.00 0.00 0.00 0.00 0.00
0.00 0.01 0.01 0.02 0.03 0.03 0.02 0.01 0.01 0.01 0.00 0.00 0.00 0.00 0.00 0.01 0.01 0.00 0.00 0.00 0.00 0.00 0.00 0.00 0.00 0.00 0.00 0.01 0.02 0.00 0.00 0.00 0.03 0.01 0.00 0.01 0.01 0.01 0.01 0.00 0.00 0.00 0.00 0.00 0.00 0.00 0.00
0.01 0.01 0.01 0.02 0.03 0.02 0.02 0.02 0.02 0.02 0.01 0.00 0.00 0.00 0.00 0.01 0.01 0.00 0.00 0.00 0.01 0.00 0.00 0.00 0.01 0.02 0.02 0.00 0.03 0.06 0.01 0.01 0.03 0.01 0.00 0.01 0.02 0.01 0.00 0.01 0.01 0.00 0.00 0.00 0.00 0.00 0.00
0.02 0.00 0.00 0.01 0.02 0.03 0.02 0.01 0.02 0.02 0.01 0.01 0.00 0.00 0.01 0.00 0.01 0.02 0.01 0.01 0.00 0.00 0.00 0.01 0.01 0.02 0.01 0.00 0.01 0.03 0.01 0.01 0.02 0.00 0.00 0.01 0.02 0.03 0.01 0.01 0.01 0.00 0.01 0.00 0.00 0.00 0.00
0.03 0.02 0.01 0.01 0.03 0.02 0.01 0.01 0.02 0.03 0.01 0.01 0.00 0.01 0.01 0.00 0.02 0.02 0.01 0.00 0.00 0.00 0.00 0.00 0.00 0.01 0.01 0.00 0.01 0.01 0.00 0.00 0.01 0.00 0.00 0.01 0.02 0.02 0.00 0.00 0.00 0.00 0.00 0.00 0.00 0.00 0.00
0.02 0.03 0.02 0.01 0.03 0.02 0.02 0.01 0.03 0.02 0.00 0.00 0.00 0.00 0.01 0.00 0.02 0.01 0.00 0.00 0.00 0.00 0.00 0.01 0.01 0.01 0.01 0.01 0.01 0.01 0.00 0.00 0.00 0.00 0.00 0.00 0.01 0.00 0.00 0.00 0.01 0.00 0.00 0.00 0.00 0.00 0.00
0.03 0.02 0.03 0.03 0.03 0.02 0.01 0.01 0.02 0.01 0.00 0.00 0.00 0.00 0.00 0.00 0.02 0.01 0.00 0.00 0.00 0.00 0.00 0.00 0.00 0.00 0.00 0.00 0.01 0.01 0.00 0.00 0.00 0.00 0.00 0.00 0.00 0.00 0.00 0.00 0.00 0.00 0.00 0.00 0.00 0.00 0.00
0.02 0.03 0.03 0.03 0.03 0.02 0.00 0.01 0.02 0.00 0.00 0.00 0.00 0.00 0.00 0.00 0.01 0.00 0.00 0.00 0.00 0.01 0.00 0.00 0.00 0.00 0.00 0.00 0.00 0.00 0.00 0.00 0.00 0.00 0.00 0.00 0.00 0.00 0.00 0.00 0.00 0.00 0.00 0.00 0.00 0.00 0.00
0.02 0.03 0.04 0.04 0.04 0.01 0.00 0.00 0.02 0.00 0.00 0.00 0.00 0.00 0.01 0.00 0.00 0.00 0.00 0.00 0.01 0.00 0.00 0.01 0.00 0.00 0.00 0.00 0.00 0.01 0.00 0.00 0.00 0.00 0.00 0.00 0.00 0.00 0.00 0.00 0.00 0.00 0.00 0.00 0.00 0.00 0.00
0.01 0.01 0.04 0.05 0.04 0.01 0.00 0.00 0.02 0.00 0.00 0.00 0.00 0.00 0.02 0.01 0.00 0.00 0.00 0.00 0.00 0.00 0.00 0.03 0.00 0.00 0.00 0.00 0.00 0.01 0.00 0.00 0.00 0.00 0.00 0.00 0.00 0.00 0.00 0.00 0.00 0.00 0.00 0.00 0.00 0.00 0.00
0.02 0.01 0.03 0.05 0.04 0.01 0.00 0.00 0.01 0.00 0.00 0.00 0.00 0.00 0.02 0.01 0.01 0.01 0.01 0.01 0.01 0.01 0.01 0.05 0.00 0.00 0.00 0.00 0.00 0.00 0.00 0.00 0.00 0.00 0.00 0.00 0.00 0.00 0.00 0.00 0.00 0.00 0.00 0.00 0.00 0.00 0.00
0.02 0.01 0.02 0.04 0.04 0.01 0.00 0.00 0.00 0.00 0.00 0.00 0.00 0.00 0.00 0.00 0.00 0.00 0.01 0.01 0.01 0.01 0.01 0.02 0.00 0.00 0.00 0.00 0.00 0.00 0.00 0.00 0.00 0.00 0.00 0.00 0.00 0.00 0.00 0.00 0.00 0.00 0.00 0.00 0.00 0.00 0.00
0.03 0.01 0.02 0.04 0.03 0.02 0.00 0.00 0.00 0.00 0.00 0.00 0.00 0.00 0.00 0.00 0.00 0.00 0.01 0.01 0.00 0.01 0.00 0.00 0.00 0.00 0.00 0.00 0.00 0.00 0.00 0.00 0.00 0.00 0.00 0.00 0.00 0.00 0.00 0.00 0.00 0.00 0.00 0.00 0.00 0.00 0.00
0.02 0.01 0.01 0.02 0.02 0.02 0.00 0.00 0.00 0.00 0.00 0.00 0.00 0.00 0.00 0.00 0.00 0.00 0.00 0.00 0.00 0.00 0.00 0.00 0.00 0.00 0.00 0.00 0.00 0.00 0.00 0.00 0.00 0.00 0.00 0.00 0.00 0.00 0.00 0.00 0.00 0.00 0.00 0.00 0.00 0.00 0.00
0.02 0.01 0.01 0.01 0.01 0.01 0.00 0.00 0.00 0.00 0.00 0.00 0.00 0.00 0.00 0.00 0.00 0.00 0.00 0.00 0.00 0.00 0.00 0.00 0.00 0.00 0.00 0.00 0.00 0.00 0.00 0.00 0.00 0.00 0.00 0.00 0.00 0.00 0.00 0.00 0.00 0.00 0.00 0.00 0.00 0.00 0.00
0.03 0.02 0.01 0.01 0.00 0.00 0.00 0.00 0.00 0.00 0.00 0.00 0.00 0.00 0.00 0.00 0.00 0.00 0.00 0.00 0.00 0.00 0.00 0.00 0.00 0.00 0.00 0.00 0.00 0.00 0.00 0.00 0.00 0.00 0.00 0.00 0.00 0.00 0.00 0.00 0.00 0.00 0.00 0.00 0.00 0.00 0.00
0.03 0.01 0.01 0.01 0.00 0.00 0.00 0.00 0.00 0.00 0.00 0.00 0.00 0.00 0.00 0.00 0.00 0.00 0.00 0.00 0.00 0.00 0.00 0.00 0.00 0.00 0.00 0.00 0.00 0.00 0.00 0.00 0.00 0.00 0.00 0.00 0.00 0.00 0.00 0.00 0.00 0.00 0.00 0.00 0.00 0.00 0.00
0.02 0.01 0.01 0.00 0.00 0.00 0.00 0.00 0.00 0.00 0.00 0.00 0.00 0.00 0.00 0.00 0.00 0.00 0.00 0.00 0.00 0.00 0.00 0.00 0.00 0.00 0.00 0.00 0.00 0.00 0.00 0.00 0.00 0.00 0.00 0.00 0.00 0.00 0.00 0.00 0.00 0.00 0.00 0.00 0.00 0.00 0.00
0.02 0.01 0.01 0.00 0.00 0.00 0.00 0.00 0.00 0.00 0.00 0.00 0.00 0.00 0.00 0.00 0.00 0.00 0.00 0.00 0.00 0.00 0.00 0.00 0.00 0.00 0.00 0.00 0.00 0.00 0.00 0.00 0.00 0.00 0.00 0.00 0.00 0.00 0.00 0.00 0.00 0.00 0.00 0.00 0.00 0.00 0.00
0.02 0.01 0.01 0.00 0.00 0.00 0.00 0.00 0.00 0.00 0.00 0.00 0.00 0.00 0.00 0.00 0.00 0.00 0.00 0.00 0.00 0.00 0.00 0.00 0.00 0.00 0.00 0.00 0.00 0.00 0.00 0.00 0.00 0.00 0.00 0.00 0.00 0.00 0.00 0.00 0.00 0.00 0.00 0.00 0.00 0.00 0.00
MSLP
1016.41 1016.06 1015.90 1015.83 1015.73 1015.74 1015.78 1016.00 1016.07 1016.13 1016.11 1016.00 1016.01 1015.82 1015.62 1015.63 1015.70 1015.80 1015.83 1015.98 1016.14 1016.14 1016.11 1016.14 1016.21 1016.44 1016.78 1016.42 1015.28 1015.19 1015.41 1015.42 1015.00 1015.37 1015.48 1015.74 1015.45 1014.48 1013.48 1012.87 1012.74 1012.52 1011.66 1011.86 1011.67 1011.71 1011.71
1015.93 1015.76 1015.60 1015.45 1015.39 1015.51 1015.33 1015.47 1015.67 1015.74 1015.72 1015.66 1015.80 1015.62 1015.41 1015.37 1015.51 1015.60 1015.65 1015.96 1016.13 1016.14 1016.07 1016.08 1016.15 1016.42 1016.27 1015.66 1014.81 1014.93 1014.94 1015.15 1015.12 1015.16 1015.50 1015.39 1014.84 1013.97 1013.13 1012.54 1012.16 1011.79 1011.89 1011.58 1011.41 1011.39 1011.46
1015.51 1015.28 1015.23 1015.11 1015.07 1015.05 1015.10 1015.03 1015.23 1015.32 1015.42 1015.30 1015.40 1015.43 1015.18 1015.01 1015.13 1015.41 1015.44 1015.79 1015.98 1016.07 1016.10 1015.99 1016.15 1016.39 1015.98 1015.00 1014.85 1014.85 1015.13 1014.85 1014.92 1014.92 1014.94 1015.01 1015.12 1014.57 1013.17 1012.63 1012.24 1011.82 1011.81 1011.46 1011.13 1011.12 1010.88
1015.23 1014.85 1014.73 1014.72 1014.58 1014.59 1014.65 1014.68 1014.74 1014.78 1014.98 1014.91 1014.99 1015.04 1014.85 1014.69 1014.93 1015.14 1015.23 1015.45 1015.78 1015.89 1015.93 1016.01 1016.21 1016.38 1015.30 1014.68 1014.76 1014.92 1014.89 1014.75 1014.92 1014.66 1014.71 1014.73 1015.31 1015.06 1014.07 1012.39 1012.03 1011.83 1011.67 1010.61 1010.16 1010.46 1010.54
1014.73 1014.54 1014.31 1014.22 1014.14 1014.04 1014.02 1014.08 1014.15 1014.18 1014.39 1014.43 1014.57 1014.57 1014.59 1014.62 1014.75 1014.98 1015.01 1015.27 1015.49 1015.76 1015.82 1016.04 1016.33 1016.14 1014.84 1014.45 1014.26 1014.15 1014.42 1014.54 1014.45 1014.53 1014.39 1014.73 1015.52 1014.75 1013.85 1012.78 1011.95 1010.88 1010.05 1010.07 1009.74 1010.17 1010.02
1013.97 1014.02 1013.95 1013.84 1013.68 1013.55 1013.41 1013.49 1013.54 1013.53 1013.72 1013.92 1014.16 1014.20 1014.22 1014.32 1014.52 1014.79 1014.88 1014.98 1015.07 1015.59 1015.90 1016.00 1016.10 1016.31 1014.46 1013.54 1013.48 1013.66 1014.11 1014.29 1014.28 1014.43 1014.41 1014.63 1015.20 1014.18 1013.26 1012.14 1009.63 1009.61 1009.74 1009.23 1009.45 1009.58 1009.69
1013.45 1013.12 1013.42 1013.40 1013.21 1013.01 1012.87 1012.93 1013.03 1013.02 1013.16 1013.40 1013.66 1013.78 1013.75 1013.88 1014.00 1014.45 1014.79 1015.27 1015.85 1015.87 1015.24 1014.02 1014.05 1013.44 1013.09 1013.12 1013.44 1013.40 1013.77 1014.01 1014.31 1014.14 1013.89 1013.68 1014.05 1012.19 1011.64 1010.90 1009.89 1009.27 1009.18 1009.06 1009.26 1009.39 1009.55
1012.92 1012.67 1012.39 1012.82 1012.76 1012.56 1012.47 1012.44 1012.43 1012.49 1012.63 1012.84 1013.15 1013.30 1013.31 1013.40 1013.59 1013.90 1014.24 1014.12 1013.80 1013.81 1014.21 1014.00 1013.83 1013.49 1013.26 1013.18 1012.97 1012.96 1013.47 1013.51 1013.76 1013.33 1013.71 1012.83 1012.25 1011.81 1011.38 1010.70 1009.69 1009.13 1009.06 1009.01 1008.92 1009.70 1009.54
1012.19 1012.15 1011.83 1012.04 1012.11 1012.05 1011.94 1011.92 1011.90 1011.93 1012.08 1012.24 1012.67 1012.80 1012.91 1013.14 1013.44 1013.54 1013.18 1013.26 1013.49 1013.66 1013.93 1013.19 1013.03 1012.92 1012.95 1013.23 1012.51 1012.21 1012.91 1012.74 1012.39 1012.17 1012.88 1011.38 1011.07 1011.12 1010.93 1010.12 1009.42 1009.25 1008.95 1008.71 1009.08 1009.67 1009.41
1011.54 1011.38 1011.35 1011.19 1011.34 1011.37 1011.34 1011.31 1011.38 1011.44 1011.47 1011.68 1012.10 1012.33 1012.51 1012.93 1013.52 1012.49 1012.65 1013.02 1013.29 1013.40 1013.71 1012.70 1012.11 1011.76 1012.31 1012.50 1012.03 1011.85 1012.02 1012.23 1011.81 1011.48 1012.54 1011.20 1010.53 1010.38 1010.16 1009.16 1008.94 1008.91 1009.00 1009.25 1009.73 1009.81 1008.67
1010.78 1010.68 1010.72 1010.57 1010.69 1010.73 1010.72 1010.66 1010.74 1010.84 1010.86 1011.11 1011.52 1011.78 1012.00 1012.40 1012.34 1012.31 1012.61 1012.99 1013.52 1013.74 1013.15 1011.11 1011.16 1010.81 1010.93 1011.37 1010.83 1010.88 1011.29 1011.73 1011.01 1011.37 1012.64 1010.74 1009.81 1009.54 1009.12 1008.71 1008.77 1008.56 1009.22 1009.59 1009.94 1009.84 1009.58
1009.89 1009.92 1009.93 1009.96 1009.92 1010.06 1010.06 1010.03 1010.02 1010.17 1010.29 1010.47 1010.84 1011.18 1011.57 1012.02 1011.97 1011.84 1012.25 1012.83 1013.35 1013.86 1011.47 1010.67 1010.49 1010.48 1010.72 1010.91 1010.58 1010.86 1011.13 1011.37 1011.19 1011.39 1011.76 1009.97 1009.61 1009.65 1008.48 1008.89 1009.02 1009.46 1009.78 1010.19 1010.27 1010.22 1008.85
1009.21 1009.09 1009.19 1009.18 1009.20 1009.31 1009.41 1009.46 1009.42 1009.53 1009.71 1009.87 1010.16 1010.42 1010.95 1011.10 1010.72 1011.26 1012.13 1012.94 1013.34 1011.93 1010.62 1010.29 1010.10 1010.10 1010.07 1010.36 1010.54 1010.85 1010.42 1010.83 1011.18 1010.91 1010.93 1010.43 1009.74 1008.99 1008.32 1009.06 1009.56 1009.13 1009.59 1010.11 1010.27 1009.79 1007.76
1008.79 1008.33 1008.38 1008.41 1008.47 1008.59 1008.78 1008.83 1008.86 1008.86 1009.10 1009.29 1009.48 1009.66 1009.83 1010.17 1010.42 1011.13 1011.67 1012.19 1011.35 1009.66 1009.73 1009.66 1009.48 1009.79 1009.70 1009.80 1009.92 1010.31 1010.03 1010.47 1010.95 1010.55 1009.85 1010.04 1008.30 1008.21 1007.62 1008.05 1008.63 1009.06 1008.46 1007.74 1007.52 1007.43 1006.87
1008.64 1007.76 1007.42 1007.58 1007.67 1007.86 1008.09 1008.24 1008.32 1008.30 1008.57 1008.72 1008.86 1009.17 1009.27 1009.34 1009.91 1010.67 1011.16 1010.92 1009.19 1008.83 1009.09 1008.87 1008.83 1008.89 1008.87 1009.11 1009.54 1009.58 1009.10 1009.49 1010.31 1009.89 1008.86 1009.71 1008.35 1007.78 1007.76 1008.26 1008.59 1009.35 1008.88 1008.31 1007.69 1007.71 1006.68
1008.25 1007.57 1006.84 1006.68 1006.85 1007.08 1007.38 1007.60 1007.77 1007.83 1008.04 1008.28 1008.60 1008.70 1008.07 1008.10 1009.21 1010.09 1010.76 1009.62 1008.52 1008.23 1008.46 1008.00 1007.12 1007.18 1007.20 1007.96 1008.99 1008.31 1008.39 1008.24 1008.94 1008.74 1008.19 1008.62 1008.45 1008.31 1008.35 1008.57 1009.27 1008.53 1008.65 1008.74 1007.82 1006.70 1005.73
1007.71 1006.93 1006.16 1006.01 1006.00 1006.41 1006.77 1006.97 1007.19 1007.41 1007.58 1007.95 1008.18 1008.34 1007.30 1007.81 1009.03 1010.07 1009.57 1008.81 1007.84 1007.47 1007.53 1006.83 1005.79 1005.92 1005.94 1006.49 1007.83 1007.36 1007.44 1007.07 1007.58 1007.23 1007.61 1007.32 1006.70 1008.36 1008.19 1008.44 1008.44 1008.12 1008.23 1008.14 1007.30 1006.75 1005.01
1007.02 1006.42 1005.68 1005.43 1005.36 1005.82 1006.14 1006.43 1006.60 1006.93 1007.31 1007.89 1007.84 1007.81 1007.34 1007.82 1008.79 1009.05 1008.49 1007.89 1007.35 1006.46 1006.61 1005.70 1005.08 1004.79 1005.13 1005.68 1007.12 1007.15 1006.27 1006.10 1006.06 1006.19 1006.37 1006.12 1005.21 1006.77 1007.40 1007.64 1007.22 1006.96 1006.81 1007.16 1006.65 1006.48 1005.92
1006.45 1006.10 1005.53 1004.82 1004.72 1005.15 1005.51 1005.81 1006.12 1006.49 1006.83 1007.35 1007.14 1006.99 1007.70 1007.29 1007.35 1007.46 1007.37 1006.92 1006.87 1006.23 1005.72 1004.82 1004.11 1004.01 1004.38 1005.00 1006.33 1006.61 1005.54 1005.22 1005.50 1005.56 1005.02 1005.03 1004.93 1005.59 1007.38 1007.67 1007.31 1006.70 1006.67 1006.38 1006.04 1005.85 1004.79
1006.02 1005.91 1005.35 1004.56 1004.16 1004.52 1005.01 1005.27 1005.61 1005.98 1006.24 1006.68 1006.67 1006.41 1007.25 1006.99 1006.30 1006.20 1006.28 1005.73 1005.30 1004.68 1004.30 1003.81 1002.98 1003.23 1003.76 1004.40 1004.43 1004.67 1004.52 1004.84 1005.04 1005.04 1004.85 1004.92 1004.35 1003.91 1004.00 1004.38 1005.15 1005.51 1005.59 1005.63 1005.51 1004.99 1004.30
1005.65 1005.43 1005.15 1004.40 1003.63 1003.87 1004.44 1004.75 1005.09 1005.45 1005.80 1006.28 1006.24 1005.17 1005.07 1005.36 1005.44 1005.23 1005.25 1004.88 1004.10 1003.68 1003.74 1003.27 1002.82 1002.43 1002.57 1003.17 1003.83 1003.79 1004.04 1004.42 1004.75 1004.64 1005.00 1004.76 1003.91 1004.22 1004.39 1004.36 1004.33 1004.49 1004.71 1004.85 1004.54 1004.33 1003.76
1005.40 1005.12 1004.65 1004.07 1003.54 1003.21 1003.79 1004.11 1004.58 1004.91 1005.37 1005.87 1005.29 1004.95 1004.74 1003.83 1003.91 1004.00 1004.02 1003.65 1003.51 1003.39 1003.36 1003.01 1002.60 1002.12 1002.06 1001.97 1002.21 1002.55 1003.06 1003.24 1003.45 1004.36 1004.61 1004.70 1004.32 1004.31 1004.42 1004.59 1004.43 1004.21 1004.11 1004.05 1003.91 1003.80 1003.38
1005.18 1004.82 1004.29 1003.61 1003.00 1002.60 1003.13 1003.59 1004.02 1004.35 1004.87 1005.09 1005.03 1004.76 1004.46 1002.86 1002.95 1003.16 1002.78 1003.02 1002.86 1003.19 1003.42 1003.04 1002.49 1002.14 1002.18 1002.05 1001.85 1001.72 1002.57 1002.77 1002.75 1003.16 1003.79 1004.25 1004.35 1004.51 1004.42 1004.77 1004.69 1004.34 1003.45 1003.48 1003.29 1003.16 1003.00
1005.02 1004.19 1003.86 1003.26 1002.67 1002.22 1002.44 1003.00 1003.40 1003.76 1004.12 1004.38 1004.46 1004.36 1004.05 1002.51 1002.29 1002.14 1002.25 1002.70 1002.70 1002.90 1003.10 1002.96 1002.42 1002.22 1002.59 1002.47 1002.25 1002.41 1003.08 1003.56 1003.47 1004.04 1003.97 1004.44 1004.90 1005.21 1005.20 1005.15 1004.38 1002.86 1002.89 1002.48 1002.66 1002.55 1002.83
1004.79 1004.04 1003.28 1002.86 1002.36 1001.48 1001.86 1002.38 1002.85 1003.16 1003.64 1004.10 1004.27 1004.22 1003.69 1002.53 1001.90 1001.92 1002.13 1002.67 1003.04 1003.36 1003.64 1003.31 1003.36 1003.16 1002.53 1002.62 1002.52 1003.11 1004.25 1004.75 1004.85 1004.89 1004.91 1004.85 1005.77 1005.90 1005.63 1005.02 1003.73 1003.02 1003.17 1003.03 1002.74 1002.13 1002.73
1004.60 1003.81 1003.34 1002.80 1002.27 1001.23 1001.24 1001.82 1002.18 1002.55 1003.03 1003.64 1003.84 1003.98 1003.83 1003.12 1001.69 1001.98 1002.15 1002.67 1003.04 1003.61 1003.92 1003.78 1003.83 1003.50 1003.21 1003.01 1002.77 1003.37 1003.90 1004.42 1005.25 1005.64 1005.63 1005.97 1005.85 1006.40 1006.50 1005.23 1003.65 1002.80 1002.95 1003.10 1003.15 1002.64 1002.51
1004.15 1003.48 1002.95 1002.31 1001.92 1001.50 1000.87 1001.19 1001.60 1002.06 1002.55 1003.04 1003.27 1003.59 1003.62 1003.00 1002.29 1002.27 1002.15 1002.36 1002.84 1003.16 1003.78 1003.97 1003.87 1003.81 1003.48 1003.37 1003.59 1004.00 1004.12 1004.20 1004.23 1004.73 1005.40 1005.91 1006.27 1006.12 1005.90 1005.79 1004.01 1003.24 1003.51 1003.82 1003.85 1003.95 1003.85
1003.80 1003.17 1002.45 1001.86 1001.23 1000.74 1000.30 1000.67 1001.07 1001.64 1002.07 1002.56 1002.86 1003.26 1003.30 1002.85 1002.60 1002.66 1002.55 1002.47 1002.77 1002.77 1003.15 1003.74 1003.95 1004.12 1004.16 1003.78 1004.02 1004.39 1004.38 1004.11 1003.86 1003.88 1004.09 1004.58 1005.23 1005.51 1005.93 1006.12 1005.05 1004.07 1004.64 1004.24 1004.29 1004.73 1004.95
1003.23 1002.66 1001.97 1001.14 1000.67 1000.20 999.75 1000.16 1000.66 1001.18 1001.60 1002.11 1002.50 1003.04 1003.29 1003.09 1002.93 1002.95 1002.76 1002.70 1002.46 1002.34 1002.49 1003.01 1002.71 1002.97 1003.32 1003.78 1004.00 1004.00 1004.17 1004.33 1003.87 1003.98 1004.43 1004.45 1003.96 1004.32 1004.71 1004.77 1004.73 1004.90 1004.86 1004.87 1004.82 1005.04 1006.06
Thickness
5608 5609 5610 5611 5612 5611 5609 5605 5601 5597 5594 5592 5590 5587 5585 5582 5580 5578 5575 5572 5568 5567 5566 5565 5564 5562 5560 5557 5563 5570 5573 5575 5582 5587 5591 5595 5598 5613 5620 5637 5645 5644 5665 5667 5671 5671 5676
5604 5606 5605 5606 5607 5605 5605 5601 5597 5593 5591 5588 5584 5582 5580 5577 5573 5571 5568 5563 5559 5557 5555 5553 5550 5546 5547 5542 5559 5556 5561 5563 5568 5572 5576 5587 5598 5614 5621 5633 5639 5656 5657 5662 5664 5667 5673
5600 5602 5602 5601 5602 5601 5599 5598 5593 5589 5586 5583 5580 5576 5574 5572 5568 5563 5561 5555 5550 5547 5543 5540 5534 5531 5532 5539 5542 5543 5541 5547 5551 5562 5566 5580 5585 5592 5618 5621 5641 5648 5641 5650 5657 5664 5669
5593 5597 5598 5597 5597 5597 5595 5594 5590 5587 5582 5579 5576 5572 5570 5568 5562 5556 5553 5548 5542 5536 5530 5524 5520 5517 5523 5528 5524 5524 5526 5529 5533 5544 5557 5568 5569 5574 5591 5625 5630 5629 5635 5635 5663 5665 5669
5586 5589 5592 5593 5593 5593 5593 5591 5587 5585 5579 5575 5572 5569 5564 5559 5554 5548 5545 5539 5533 5524 5517 5512 5507 5506 5515 5518 5514 5512 5512 5511 5518 5526 5541 5548 5550 5566 5588 5596 5609 5626 5629 5636 5650 5663 5664
5581 5582 5584 5586 5587 5588 5589 5587 5585 5582 5578 5571 5567 5563 5558 5552 5547 5540 5536 5531 5525 5514 5506 5501 5496 5491 5507 5509 5506 5502 5496 5494 5499 5506 5518 5527 5535 5558 5577 5591 5604 5620 5625 5646 5644 5657 5658
5573 5576 5577 5579 5581 5584 5584 5583 5581 5578 5574 5568 5563 5559 5554 5548 5542 5534 5527 5519 5509 5501 5502 5511 5507 5507 5506 5502 5495 5490 5488 5487 5491 5498 5507 5530 5531 5559 5588 5606 5628 5638 5644 5641 5651 5655 5652
5564 5568 5572 5572 5574 5578 5579 5579 5577 5575 5571 5566 5560 5555 5550 5545 5538 5530 5522 5517 5517 5513 5499 5499 5496 5495 5493 5490 5486 5485 5485 5487 5489 5499 5509 5530 5538 5574 5591 5606 5622 5635 5632 5635 5649 5644 5650
5554 5558 5564 5566 5568 5572 5574 5574 5574 5572 5568 5563 5557 5552 5545 5539 5532 5525 5524 5517 5507 5500 5489 5494 5492 5489 5485 5480 5483 5487 5483 5490 5500 5511 5508 5541 5560 5580 5583 5597 5611 5619 5625 5636 5639 5639 5648
5545 5549 5554 5560 5563 5566 5570 5570 5570 5568 5566 5561 5555 5548 5541 5534 5527 5528 5522 5510 5502 5495 5479 5490 5488 5488 5481 5478 5478 5487 5489 5491 5502 5516 5510 5543 5565 5574 5582 5600 5616 5609 5634 5631 5626 5625 5635
5534 5541 5544 5551 5556 5560 5564 5567 5566 5565 5564 5558 5552 5546 5538 5531 5529 5524 5514 5503 5492 5485 5498 5502 5486 5490 5487 5482 5489 5489 5492 5493 5507 5509 5503 5540 5562 5575 5587 5603 5619 5624 5627 5624 5622 5621 5623
5524 5530 5536 5542 5550 5555 5559 5562 5563 5562 5561 5557 5551 5544 5536 5529 5524 5520 5508 5497 5488 5482 5502 5493 5487 5481 5477 5480 5489 5487 5489 5496 5507 5512 5518 5558 5575 5578 5602 5607 5614 5613 5612 5612 5616 5613 5624
5513 5521 5527 5535 5543 5550 5553 5557 5559 5559 5558 5555 5551 5545 5536 5530 5531 5516 5504 5492 5487 5503 5502 5494 5485 5480 5484 5481 5487 5482 5496 5498 5494 5516 5524 5545 5561 5588 5604 5590 5595 5611 5603 5588 5591 5594 5629
5504 5514 5522 5529 5537 5544 5548 5553 5555 5556 5555 5553 5550 5545 5540 5533 5526 5512 5503 5494 5511 5518 5499 5494 5490 5483 5484 5491 5493 5487 5499 5499 5503 5522 5544 5540 5571 5580 5608 5602 5595 5599 5618 5621 5614 5625 5641
5490 5505 5515 5524 5533 5539 5543 5548 5551 5553 5552 5551 5549 5544 5539 5536 5524 5515 5505 5506 5525 5518 5502 5497 5495 5488 5493 5499 5490 5498 5513 5516 5504 5527 5551 5546 5569 5585 5603 5605 5607 5588 5593 5623 5621 5622 5634
5481 5494 5508 5520 5528 5535 5540 5544 5547 5549 5549 5548 5545 5542 5545 5541 5526 5516 5500 5518 5519 5516 5498 5509 5513 5512 5512 5510 5492 5516 5522 5532 5525 5541 5556 5559 5562 5580 5585 5595 5590 5606 5618 5599 5615 5618 5624
5473 5488 5503 5515 5525 5531 5535 5541 5543 5545 5546 5544 5544 5538 5548 5539 5525 5511 5517 5517 5523 5523 5509 5519 5525 5523 5529 5524 5505 5527 5533 5544 5546 5557 5561 5574 5587 5566 5590 5585 5592 5602 5599 5606 5624 5626 5641
5466 5479 5495 5508 5520 5526 5532 5537 5540 5541 5541 5539 5541 5547 5541 5537 5525 5517 5519 5521 5526 5529 5518 5526 5530 5534 5536 5535 5507 5519 5544 5552 5566 5572 5569 5587 5606 5580 5586 5597 5610 5619 5617 5615 5614 5612 5625
5459 5473 5487 5504 5515 5523 5529 5533 5536 5538 5538 5536 5546 5544 5533 5537 5541 5532 5529 5532 5526 5529 5527 5534 5537 5544 5546 5539 5527 5530 5553 5568 5572 5576 5585 5595 5601 5587 5571 5585 5595 5604 5615 5625 5632 5628 5634
5452 5465 5480 5498 5511 5519 5524 5530 5533 5535 5537 5537 5544 5547 5538 5537 5543 5544 5538 5542 5543 5549 5549 5550 5558 5558 5551 5546 5555 5556 5566 5571 5577 5583 5589 5593 5603 5614 5611 5619 5624 5616 5622 5628 5629 5624 5634
5447 5462 5474 5490 5507 5516 5520 5526 5530 5532 5534 5534 5539 5554 5554 5548 5544 5546 5548 5550 5557 5557 5555 5558 5563 5568 5568 5558 5558 5565 5572 5573 5580 5587 5586 5595 5602 5606 5608 5616 5623 5622 5619 5619 5622 5634 5631
5441 5454 5471 5486 5502 5515 5519 5524 5526 5530 5530 5531 5547 5549 5551 5564 5562 5556 5551 5560 5560 5559 5559 5561 5564 5576 5579 5579 5583 5580 5580 5587 5589 5589 5590 5594 5596 5602 5603 5604 5614 5617 5624 5624 5628 5631 5639
5435 5449 5466 5482 5499 5512 5517 5521 5524 5527 5529 5531 5534 5538 5548 5570 5567 5561 5566 5563 5565 5561 5556 5560 5572 5577 5577 5585 5593 5597 5595 5599 5603 5599 5597 5597 5595 5597 5603 5598 5602 5604 5624 5624 5630 5636 5640
5430 5447 5462 5478 5494 5508 5516 5519 5523 5526 5529 5532 5536 5540 5549 5569 5569 5570 5569 5565 5564 5564 5564 5565 5574 5578 5575 5576 5584 5589 5588 5584 5594 5589 5600 5591 5592 5588 5589 5589 5588 5632 5625 5640 5635 5640 5640
5423 5440 5457 5473 5488 5506 5514 5518 5521 5525 5527 5528 5529 5538 5547 5565 5572 5570 5568 5561 5554 5552 5550 5563 5560 5563 5577 5579 5583 5576 5569 5567 5571 5575 5584 5587 5577 5577 5582 5591 5613 5620 5616 5621 5625 5638 5637
5417 5436 5451 5467 5480 5500 5512 5516 5520 5524 5526 5526 5528 5532 5538 5553 5572 5566 5565 5564 5558 5553 5551 5554 5554 5559 5568 5576 5584 5571 5571 5572 5565 5564 5571 5573 5579 5575 5569 5583 5603 5623 5620 5623 5626 5630 5637
5415 5432 5448 5465 5478 5492 5508 5514 5519 5522 5524 5526 5529 5530 5536 5549 5558 5560 5570 5568 5556 5554 5550 5551 5555 5563 5565 5573 5571 5569 5572 5580 5579 5576 5572 5569 5571 5577 5583 5571 5607 5617 5615 5615 5616 5630 5621
5412 5429 5446 5462 5478 5493 5507 5512 5517 5520 5522 5525 5528 5528 5536 5545 5551 5549 5554 5562 5558 5562 5561 5558 5562 5559 5556 5569 5570 5562 5568 5577 5585 5589 5591 5587 5582 5583 5583 5570 5586 5606 5603 5613 5615 5608 5610
5412 5429 5445 5463 5477 5491 5506 5511 5514 5517 5521 5523 5527 5525 5527 5537 5544 5542 5547 5551 5557 5561 5562 5554 5577 5572 5570 5563 5568 5571 5572 5568 5584 5586 5574 5588 5602 5598 5601 5604 5593 5595 5600 5599 5607 5604 5597